SCP
0 0 0 0 0 0 0 0 0 0 0 0 0 0 0 0 0 0 0 0 0 0 0 0 0 0 0 0 0 0 0 0 0 0 0 0 0 0 0 0 0 0 0
0 0 0 0 0 0 0 0 0 0 0 0 0 0 0 0 0 0 0 0 0 0 0 0 0 0 0 0 0 0 0 0 0 0 0 0 0 0 0 0 0 0 0
0 0 0 0 0 0 0 0 0 0 0 0 0 0 0 0 0 0 0 0 0 0 0 0 0 0 0 0 0 0 0 0 0 0 0 0 0 0 0 0 0 0 0
0 0 0 0 0 0 0 0 0 0 0 0 0 0 0 0 0 0 0 0 0 0 0 0 0 0 0 0 0 0 0 0 0 0 0 0 0 0 0 0 0 0 0
0 0 0 0 0 0 0 0 0 0 0 0 0 0 0 0 0 0 0 0 0 0 0 0 0 0 0 0 0 0 0 0 0 0 0 0 0 0 0 0 0 0 0
0 0 0 0 0 0 0 0 0 0 0 0 0 0 0 0 0 0 0 0 0 0 0 0 0 0 0 0 0 0 0 0 0 0 0 0 0 0 0 0 0 0 0
0 0 0 0 0 0 0 0 0 0 0 0 0 0 0 0 0 0 0 0 0 0 0 0 0 0 0 0 0 0 0 0 0 0 0 0 0 0 0 0 0 0 0
0 0 0 0 0 0 0 0 0 0 0 0 0 0 0 0 0 0 0 0 0 0 0 0 0 0 0 0 0 0 0 0 0 0 0 0 0 0 0 0 0 0 0
0 0 0 0 0 0 0 0 0 0 0 0 -0 0 0 0 -0 0 0 0 0 0 0 0 0 0 0 0 0 0 0 0 0 0 0 0 0 0 0 0 0 0 0
0 0 0 0 0 0 0 0 0 0 0 0 0 0 0 0 0 0 0 0 0 0 0 0 0 0 0 0 0 0 0 0 0 0 0 0 0 0 0 0 0 0 0
0 0 0 0 0 0 0 0 0 0 0 0 0 0 0 0 0 0 0 0 0 0 0 0 0 0 0 0 0 0 0 0 0 0 0 0 0 0 0 0 0 0 0
0 0 0 0 0 0 0 0 0 0 0 0 0 0 0 0 0 0 0 0 0 0 0 0 0 0 0 0 0 0 0 0 0 0 0 0 0 0 0 0 0 0 0
0 0 0 0 0 0 0 0 0 0 0 0 0 0 0 0 0 0 0 0 0 0 0 0 0 0 0 0 0 0 0 0 0 0 0 0 0 0 0 0 0 0 0
0 0 0 0 0 -0 0 0 0 -0 0 0 0 0 0 0 0 0 0 0 0 0 0 0 0 0 0 0 0 0 0 0 0 0 0 0 0 0 0 0 0 0 0
0 0 -0 -0 -0 0 -0 -0 -0 -0 0 0 0 0 0 0 0 0 0 0 0 0 0 0 0 0 0 0 0 0 0 0 0 0 0 0 0 0 0 0 0 0 0
-0 -0 -0 -0 -0 -0 -0 -0 0 0 0 0 0 0 0 0 0 0 0 0 0 0 0 0 0 0 0 0 0 0 0 0 0 0 0 0 0 0 0 0 0 0 0
0 -0 -0 0 0 0 0 0 0 0 0 0 0 0 0 0 0 0 0 0 0 0 0 0 0 0 0 0 0 0 0 0 0 0 0 0 0 0 0 0 0 0 0
-0 -0 -0 0 0 0 0 0 0 0 0 0 0 0 0 0 0 0 0 0 0 0 0 0 0 0 0 0 0 0 0 0 0 0 0 0 0 0 0 0 0 0 0
-0 0 0 0 0 0 0 0 0 0 0 0 0 0 0 0 0 0 0 0 0 0 0 0 0 0 0 0 0 0 0 0 0 0 0 0 0 0 0 0 0 0 0
0 0 0 0 0 0 0 0 0 0 0 0 0 0 0 0 0 0 0 0 0 0 0 0 0 0 0 0 0 0 0 0 0 0 0 0 0 0 0 0 0 0 0
0 0 0 0 0 0 0 0 0 0 0 0 0 0 0 0 0 0 0 0 0 0 0 0 0 0 0 0 0 0 0 0 0 0 0 0 0 0 0 0 0 0 0
0 0 0 0 0 0 0 0 0 0 0 0 0 0 0 0 0 0 0 0 0 0 0 0 0 0 0 0 0 0 0 0 0 0 0 0 0 0 0 0 0 0 0
0 0 0 0 0 0 0 0 0 0 0 0 0 0 0 0 0 0 0 0 0 0 0 0 0 0 0 0 0 0 0 0 0 0 0 0 0 0 0 0 0 0 0
0 0 0 0 0 0 0 0 0 0 0 0 0 0 0 0 0 0 0 0 0 0 0 0 0 0 0 0 0 0 0 0 0 0 0 0 0 0 0 0 0 0 0
0 0 0 0 0 0 0 0 0 0 0 0 0 0 0 0 0 0 0 0 0 0 0 0 0 0 0 0 0 0 0 0 0 0 0 0 0 0 0 0 0 0 0
0 0 0 0 0 0 0 0 0 0 0 0 0 0 0 0 0 0 0 0 0 0 0 0 0 0 0 0 0 0 0 0 0 0 0 0 0 0 0 0 0 0 0
Wind_Speed_500mb
106 100 111 91 123 119 125 124 117 105 102 91 85 81 75 73 72 70 54 43 39 28 29 22 24 32 26 23 20 17 19 22 27 33 39 42 47 49 46 48 49 49 48
94 107 112 106 111 116 115 121 114 110 94 92 86 77 73 77 71 58 49 46 31 29 27 30 35 30 25 22 22 22 24 29 34 39 43 45 47 47 47 49 49 49 50
97 98 107 94 107 109 110 112 102 92 96 92 77 68 76 74 63 55 53 42 41 35 34 37 33 27 26 25 25 26 30 34 38 44 48 47 46 43 45 48 50 51 52
97 95 101 92 101 100 102 111 101 106 98 80 73 71 74 64 61 53 52 49 40 41 38 35 32 29 27 26 28 32 36 40 42 46 48 46 41 37 43 51 52 52 56
92 99 94 99 98 99 105 106 110 101 94 85 79 76 69 66 59 54 52 44 44 38 37 35 31 28 26 31 34 36 41 43 47 48 46 43 41 40 47 52 55 56 59
96 86 92 87 92 97 97 100 100 92 82 80 73 76 66 63 57 55 49 45 40 37 34 31 29 28 30 35 38 41 46 50 51 48 48 47 47 48 52 54 53 55 62
91 92 87 89 89 89 95 100 93 87 84 80 72 68 59 60 54 49 44 40 35 32 32 28 29 30 34 39 44 47 51 54 55 53 55 54 53 52 55 52 51 54 59
74 82 84 88 94 97 97 91 91 82 77 74 70 65 60 52 48 42 36 34 33 31 30 28 29 33 38 41 47 54 57 57 56 54 55 53 52 49 49 48 52 58 62
72 80 83 87 94 97 98 93 87 80 77 73 69 62 56 47 39 37 36 32 32 31 29 28 31 36 40 46 51 56 59 59 57 55 53 49 47 46 44 48 52 57 64
78 84 88 94 94 94 90 85 78 75 71 66 62 49 39 37 36 32 30 29 30 27 28 29 32 36 41 46 54 57 60 54 51 54 48 45 45 45 42 46 50 53 54
79 85 88 87 88 85 80 77 76 72 64 52 43 40 37 33 30 30 29 28 24 26 28 29 30 33 41 49 52 53 53 50 53 50 52 49 47 46 48 48 47 49 51
76 79 81 77 74 73 74 72 61 51 47 45 41 37 36 32 28 28 27 25 25 29 26 27 30 34 41 43 46 54 58 53 58 55 52 50 49 49 50 49 48 49 52
72 71 71 69 66 61 55 51 48 46 43 40 37 33 26 24 27 28 30 32 30 28 24 27 32 34 39 44 51 59 58 57 58 55 53 51 51 52 50 51 52 52 52
67 66 64 58 52 47 44 42 42 41 39 35 27 20 20 27 31 34 32 32 33 35 32 34 34 35 43 49 54 54 54 59 57 56 55 54 55 53 53 54 55 54 55
46 46 44 43 41 40 38 36 33 29 23 19 17 19 21 25 25 29 35 39 42 44 43 41 41 43 47 50 53 54 57 59 62 59 59 59 59 59 58 56 56 55 55
29 32 35 36 36 34 33 33 30 28 27 25 27 26 25 28 31 36 41 44 47 50 48 52 55 57 56 52 52 53 55 59 61 60 62 62 63 63 62 59 58 57 56
24 28 32 32 33 32 32 31 31 31 31 29 28 29 32 32 39 39 40 46 53 58 59 64 64 63 59 55 54 57 62 62 58 60 63 64 65 66 65 60 59 59 56
26 27 28 30 32 33 30 25 27 31 31 32 33 37 40 39 39 40 46 52 62 68 70 69 65 65 63 62 60 62 66 65 69 67 66 68 69 69 67 60 58 58 55
27 28 28 31 33 32 32 31 31 34 38 40 39 39 39 36 39 46 55 63 69 72 70 67 65 65 66 68 66 69 73 71 72 71 72 72 72 70 67 60 58 55 54
29 28 28 31 32 35 37 37 37 39 41 41 39 35 39 45 50 51 56 61 64 66 67 68 69 70 70 71 72 72 74 74 73 75 74 74 73 70 66 60 57 52 50
23 26 29 30 30 31 33 36 38 39 39 38 39 41 48 54 56 57 58 59 59 60 63 65 67 69 70 71 71 73 77 74 73 71 71 72 70 68 64 59 55 49 45
19 22 24 27 26 26 29 30 35 37 38 42 46 49 50 54 57 57 57 56 56 56 58 61 64 66 68 68 70 79 76 72 68 65 66 67 66 64 61 57 53 46 43
12 14 13 15 20 23 26 29 33 39 42 43 46 48 50 53 52 51 52 52 51 51 53 57 61 63 64 69 73 71 68 64 59 58 60 62 61 60 57 54 49 46 41
16 18 20 22 24 26 29 32 33 34 36 37 39 40 40 40 40 40 41 43 46 50 53 58 61 64 69 68 64 59 55 54 53 53 54 54 56 54 51 50 47 44 39
16 17 18 19 21 22 23 24 25 25 25 26 28 30 32 35 37 39 41 43 46 50 54 56 57 58 58 57 53 49 47 48 46 45 47 49 49 47 46 46 44 43 37
14 14 15 16 15 15 16 16 18 19 21 24 26 28 31 32 34 36 39 42 45 47 50 50 51 52 51 49 46 44 42 42 40 38 40 42 43 43 42 42 40 40 35
Wind_Direction_500mb
204 206 211 203 201 211 211 204 198 202 195 195 197 195 194 188 184 187 200 197 188 187 209 202 225 233 235 241 255 271 279 285 289 289 292 300 304 308 309 310 313 314 314
192 195 201 197 203 205 207 203 198 189 191 195 194 195 198 190 189 193 180 176 193 219 199 218 223 227 236 250 260 274 288 293 293 296 301 301 299 303 306 310 312 314 314
195 199 199 211 204 203 203 194 190 191 191 190 193 198 189 189 178 171 183 200 220 192 211 220 225 232 242 254 268 283 292 294 294 293 298 300 302 308 307 304 309 313 311
199 200 194 207 205 199 195 190 186 189 186 188 186 188 186 176 175 182 201 212 186 206 214 221 229 236 248 264 279 284 286 290 293 294 295 297 301 301 297 305 306 306 311
192 188 195 191 195 196 188 186 183 181 181 180 179 173 171 174 197 208 185 185 205 209 214 224 235 245 260 271 279 286 288 289 288 288 291 294 299 292 293 297 298 306 312
183 187 185 194 193 188 185 179 174 173 176 173 172 170 182 193 192 176 187 203 206 212 221 230 241 256 267 274 281 286 287 286 286 286 286 286 287 287 289 292 299 306 312
178 180 184 186 182 178 176 173 171 172 169 168 176 182 184 174 173 190 199 204 209 217 228 240 252 265 273 281 285 285 285 286 288 285 283 284 283 283 286 292 298 305 307
168 170 174 175 171 169 167 166 166 166 169 171 179 174 167 177 191 197 202 209 216 224 234 247 263 272 279 283 285 285 284 284 285 284 282 283 280 284 286 292 301 305 306
161 163 167 167 162 163 163 164 162 162 168 169 165 168 180 189 194 200 209 216 224 232 244 256 266 276 283 285 285 286 286 285 284 283 281 284 283 283 285 296 302 304 308
155 156 159 160 158 159 159 158 159 160 160 164 175 182 183 192 199 206 218 230 236 242 252 262 272 279 284 286 287 285 283 287 285 285 283 284 282 285 290 295 298 300 303
150 151 152 154 152 152 155 153 150 157 168 176 178 181 189 196 204 214 224 235 245 255 260 266 276 284 288 287 285 287 293 289 283 277 283 285 289 290 292 293 296 299 301
141 142 144 148 148 146 147 153 161 167 173 178 182 187 196 204 213 223 231 240 244 251 266 280 288 290 287 288 299 303 299 291 281 280 277 281 285 287 289 293 296 299 300
139 138 136 138 145 153 158 163 170 175 180 182 189 197 204 217 226 232 232 235 240 252 263 274 282 294 312 315 312 302 294 277 277 276 279 282 281 285 291 292 295 296 296
134 140 146 151 157 165 170 175 177 181 185 192 197 206 223 233 235 236 238 240 243 251 262 273 287 303 307 310 306 298 285 281 279 276 277 280 281 286 288 288 290 293 295
147 153 158 163 167 169 175 180 186 192 199 209 220 233 244 256 263 258 253 251 251 257 264 273 282 290 292 298 298 293 289 282 278 277 277 279 279 283 286 286 288 290 294
162 166 170 171 174 180 188 192 198 205 213 221 231 241 252 267 271 263 257 256 260 267 273 277 281 281 282 289 295 297 292 289 283 279 277 276 276 279 283 284 286 289 292
189 185 186 188 193 196 201 205 214 221 227 237 251 262 265 270 272 272 274 272 270 271 272 273 278 279 280 284 295 297 297 296 289 280 277 276 276 275 278 280 283 286 290
193 198 204 208 214 217 221 228 238 241 247 253 257 263 267 269 278 289 285 282 273 268 269 274 280 284 286 290 292 300 299 294 289 285 280 276 274 272 274 276 279 282 286
205 209 212 219 225 231 235 241 249 253 253 255 258 264 270 280 292 290 286 280 276 273 273 276 280 282 285 288 291 298 299 295 288 282 278 275 272 268 270 272 275 278 283
212 215 224 230 233 238 241 246 254 257 260 264 269 278 285 280 281 284 284 283 282 281 281 280 282 283 285 287 289 293 296 293 286 282 279 275 270 267 267 269 271 273 279
225 228 231 239 244 249 251 255 263 267 268 274 281 284 281 277 280 283 285 286 286 284 282 281 282 283 285 288 290 293 294 292 287 281 276 271 267 266 267 269 269 271 276
238 243 242 245 251 258 264 263 264 272 281 283 284 281 277 276 280 284 284 284 285 285 283 283 284 286 289 292 294 297 295 291 286 282 276 270 268 266 268 268 269 270 273
244 254 267 273 271 271 274 278 280 279 281 282 281 280 281 281 282 285 289 292 293 292 291 292 293 294 293 293 296 295 293 290 286 281 274 271 269 269 270 271 271 270 271
258 258 259 262 267 272 273 274 279 282 281 281 281 283 286 290 293 294 295 295 296 297 297 297 296 296 296 296 295 293 290 287 286 283 279 274 273 273 274 273 272 272 271
248 255 259 261 264 269 274 276 276 277 281 286 289 292 294 295 297 299 301 302 303 302 300 300 299 299 298 297 296 293 290 287 286 284 280 278 277 277 276 275 275 274 273
248 250 253 255 256 258 262 268 274 281 287 292 296 300 302 305 307 308 309 307 306 306 306 306 305 304 304 302 298 295 292 290 290 288 286 285 284 283 281 279 277 275 275
Wind_Speed_850mb
106 100 111 91 123 119 125 124 117 105 102 91 85 81 75 73 72 70 54 43 39 28 29 22 24 32 26 23 20 17 19 22 27 33 39 42 47 49 46 48 49 49 48
94 107 112 106 111 116 115 121 114 110 94 92 86 77 73 77 71 58 49 46 31 29 27 30 35 30 25 22 22 22 24 29 34 39 43 45 47 47 47 49 49 49 50
97 98 107 94 107 109 110 112 102 92 96 92 77 68 76 74 63 55 53 42 41 35 34 37 33 27 26 25 25 26 30 34 38 44 48 47 46 43 45 48 50 51 52
97 95 101 92 101 100 102 111 101 106 98 80 73 71 74 64 61 53 52 49 40 41 38 35 32 29 27 26 28 32 36 40 42 46 48 46 41 37 43 51 52 52 56
92 99 94 99 98 99 105 106 110 101 94 85 79 76 69 66 59 54 52 44 44 38 37 35 31 28 26 31 34 36 41 43 47 48 46 43 41 40 47 52 55 56 59
96 86 92 87 92 97 97 100 100 92 82 80 73 76 66 63 57 55 49 45 40 37 34 31 29 28 30 35 38 41 46 50 51 48 48 47 47 48 52 54 53 55 62
91 92 87 89 89 89 95 100 93 87 84 80 72 68 59 60 54 49 44 40 35 32 32 28 29 30 34 39 44 47 51 54 55 53 55 54 53 52 55 52 51 54 59
74 82 84 88 94 97 97 91 91 82 77 74 70 65 60 52 48 42 36 34 33 31 30 28 29 33 38 41 47 54 57 57 56 54 55 53 52 49 49 48 52 58 62
72 80 83 87 94 97 98 93 87 80 77 73 69 62 56 47 39 37 36 32 32 31 29 28 31 36 40 46 51 56 59 59 57 55 53 49 47 46 44 48 52 57 64
78 84 88 94 94 94 90 85 78 75 71 66 62 49 39 37 36 32 30 29 30 27 28 29 32 36 41 46 54 57 60 54 51 54 48 45 45 45 42 46 50 53 54
79 85 88 87 88 85 80 77 76 72 64 52 43 40 37 33 30 30 29 28 24 26 28 29 30 33 41 49 52 53 53 50 53 50 52 49 47 46 48 48 47 49 51
76 79 81 77 74 73 74 72 61 51 47 45 41 37 36 32 28 28 27 25 25 29 26 27 30 34 41 43 46 54 58 53 58 55 52 50 49 49 50 49 48 49 52
72 71 71 69 66 61 55 51 48 46 43 40 37 33 26 24 27 28 30 32 30 28 24 27 32 34 39 44 51 59 58 57 58 55 53 51 51 52 50 51 52 52 52
67 66 64 58 52 47 44 42 42 41 39 35 27 20 20 27 31 34 32 32 33 35 32 34 34 35 43 49 54 54 54 59 57 56 55 54 55 53 53 54 55 54 55
46 46 44 43 41 40 38 36 33 29 23 19 17 19 21 25 25 29 35 39 42 44 43 41 41 43 47 50 53 54 57 59 62 59 59 59 59 59 58 56 56 55 55
29 32 35 36 36 34 33 33 30 28 27 25 27 26 25 28 31 36 41 44 47 50 48 52 55 57 56 52 52 53 55 59 61 60 62 62 63 63 62 59 58 57 56
24 28 32 32 33 32 32 31 31 31 31 29 28 29 32 32 39 39 40 46 53 58 59 64 64 63 59 55 54 57 62 62 58 60 63 64 65 66 65 60 59 59 56
26 27 28 30 32 33 30 25 27 31 31 32 33 37 40 39 39 40 46 52 62 68 70 69 65 65 63 62 60 62 66 65 69 67 66 68 69 69 67 60 58 58 55
27 28 28 31 33 32 32 31 31 34 38 40 39 39 39 36 39 46 55 63 69 72 70 67 65 65 66 68 66 69 73 71 72 71 72 72 72 70 67 60 58 55 54
29 28 28 31 32 35 37 37 37 39 41 41 39 35 39 45 50 51 56 61 64 66 67 68 69 70 70 71 72 72 74 74 73 75 74 74 73 70 66 60 57 52 50
23 26 29 30 30 31 33 36 38 39 39 38 39 41 48 54 56 57 58 59 59 60 63 65 67 69 70 71 71 73 77 74 73 71 71 72 70 68 64 59 55 49 45
19 22 24 27 26 26 29 30 35 37 38 42 46 49 50 54 57 57 57 56 56 56 58 61 64 66 68 68 70 79 76 72 68 65 66 67 66 64 61 57 53 46 43
12 14 13 15 20 23 26 29 33 39 42 43 46 48 50 53 52 51 52 52 51 51 53 57 61 63 64 69 73 71 68 64 59 58 60 62 61 60 57 54 49 46 41
16 18 20 22 24 26 29 32 33 34 36 37 39 40 40 40 40 40 41 43 46 50 53 58 61 64 69 68 64 59 55 54 53 53 54 54 56 54 51 50 47 44 39
16 17 18 19 21 22 23 24 25 25 25 26 28 30 32 35 37 39 41 43 46 50 54 56 57 58 58 57 53 49 47 48 46 45 47 49 49 47 46 46 44 43 37
14 14 15 16 15 15 16 16 18 19 21 24 26 28 31 32 34 36 39 42 45 47 50 50 51 52 51 49 46 44 42 42 40 38 40 42 43 43 42 42 40 40 35
Wind_Direction_850mb
204 206 211 203 201 211 211 204 198 202 195 195 197 195 194 188 184 187 200 197 188 187 209 202 225 233 235 241 255 271 279 285 289 289 292 300 304 308 309 310 313 314 314
192 195 201 197 203 205 207 203 198 189 191 195 194 195 198 190 189 193 180 176 193 219 199 218 223 227 236 250 260 274 288 293 293 296 301 301 299 303 306 310 312 314 314
195 199 199 211 204 203 203 194 190 191 191 190 193 198 189 189 178 171 183 200 220 192 211 220 225 232 242 254 268 283 292 294 294 293 298 300 302 308 307 304 309 313 311
199 200 194 207 205 199 195 190 186 189 186 188 186 188 186 176 175 182 201 212 186 206 214 221 229 236 248 264 279 284 286 290 293 294 295 297 301 301 297 305 306 306 311
192 188 195 191 195 196 188 186 183 181 181 180 179 173 171 174 197 208 185 185 205 209 214 224 235 245 260 271 279 286 288 289 288 288 291 294 299 292 293 297 298 306 312
183 187 185 194 193 188 185 179 174 173 176 173 172 170 182 193 192 176 187 203 206 212 221 230 241 256 267 274 281 286 287 286 286 286 286 286 287 287 289 292 299 306 312
178 180 184 186 182 178 176 173 171 172 169 168 176 182 184 174 173 190 199 204 209 217 228 240 252 265 273 281 285 285 285 286 288 285 283 284 283 283 286 292 298 305 307
168 170 174 175 171 169 167 166 166 166 169 171 179 174 167 177 191 197 202 209 216 224 234 247 263 272 279 283 285 285 284 284 285 284 282 283 280 284 286 292 301 305 306
161 163 167 167 162 163 163 164 162 162 168 169 165 168 180 189 194 200 209 216 224 232 244 256 266 276 283 285 285 286 286 285 284 283 281 284 283 283 285 296 302 304 308
155 156 159 160 158 159 159 158 159 160 160 164 175 182 183 192 199 206 218 230 236 242 252 262 272 279 284 286 287 285 283 287 285 285 283 284 282 285 290 295 298 300 303
150 151 152 154 152 152 155 153 150 157 168 176 178 181 189 196 204 214 224 235 245 255 260 266 276 284 288 287 285 287 293 289 283 277 283 285 289 290 292 293 296 299 301
141 142 144 148 148 146 147 153 161 167 173 178 182 187 196 204 213 223 231 240 244 251 266 280 288 290 287 288 299 303 299 291 281 280 277 281 285 287 289 293 296 299 300
139 138 136 138 145 153 158 163 170 175 180 182 189 197 204 217 226 232 232 235 240 252 263 274 282 294 312 315 312 302 294 277 277 276 279 282 281 285 291 292 295 296 296
134 140 146 151 157 165 170 175 177 181 185 192 197 206 223 233 235 236 238 240 243 251 262 273 287 303 307 310 306 298 285 281 279 276 277 280 281 286 288 288 290 293 295
147 153 158 163 167 169 175 180 186 192 199 209 220 233 244 256 263 258 253 251 251 257 264 273 282 290 292 298 298 293 289 282 278 277 277 279 279 283 286 286 288 290 294
162 166 170 171 174 180 188 192 198 205 213 221 231 241 252 267 271 263 257 256 260 267 273 277 281 281 282 289 295 297 292 289 283 279 277 276 276 279 283 284 286 289 292
189 185 186 188 193 196 201 205 214 221 227 237 251 262 265 270 272 272 274 272 270 271 272 273 278 279 280 284 295 297 297 296 289 280 277 276 276 275 278 280 283 286 290
193 198 204 208 214 217 221 228 238 241 247 253 257 263 267 269 278 289 285 282 273 268 269 274 280 284 286 290 292 300 299 294 289 285 280 276 274 272 274 276 279 282 286
205 209 212 219 225 231 235 241 249 253 253 255 258 264 270 280 292 290 286 280 276 273 273 276 280 282 285 288 291 298 299 295 288 282 278 275 272 268 270 272 275 278 283
212 215 224 230 233 238 241 246 254 257 260 264 269 278 285 280 281 284 284 283 282 281 281 280 282 283 285 287 289 293 296 293 286 282 279 275 270 267 267 269 271 273 279
225 228 231 239 244 249 251 255 263 267 268 274 281 284 281 277 280 283 285 286 286 284 282 281 282 283 285 288 290 293 294 292 287 281 276 271 267 266 267 269 269 271 276
238 243 242 245 251 258 264 263 264 272 281 283 284 281 277 276 280 284 284 284 285 285 283 283 284 286 289 292 294 297 295 291 286 282 276 270 268 266 268 268 269 270 273
244 254 267 273 271 271 274 278 280 279 281 282 281 280 281 281 282 285 289 292 293 292 291 292 293 294 293 293 296 295 293 290 286 281 274 271 269 269 270 271 271 270 271
258 258 259 262 267 272 273 274 279 282 281 281 281 283 286 290 293 294 295 295 296 297 297 297 296 296 296 296 295 293 290 287 286 283 279 274 273 273 274 273 272 272 271
248 255 259 261 264 269 274 276 276 277 281 286 289 292 294 295 297 299 301 302 303 302 300 300 299 299 298 297 296 293 290 287 286 284 280 278 277 277 276 275 275 274 273
248 250 253 255 256 258 262 268 274 281 287 292 296 300 302 305 307 308 309 307 306 306 306 306 305 304 304 302 298 295 292 290 290 288 286 285 284 283 281 279 277 275 275